Terug naar catalogus

AE5RC

ActiefWetenschapSSO
NORAD 66677·PAYLOAD·🇦🇿 Azerbaijan

Gelanceerd Nov 28, 2025 vanaf Vandenberg Space Force Base

Loading…

Volgende Passages (komende 24 uur)

TLE

VersSource: Space-Track

Epoch: Sep 14, 2026, 10:54 UTC

1 66677U 25276M   26257.45465576  .00011136  00000-0  45144-3 0  9991
2 66677  97.4104 330.3593 0006107  70.9917 289.1982 15.24793391 44047

Volg AE5RC in realtime met AllMySat

Download on the App Store